Zurück zum Katalog

NOAA 17 DEB

LostPO
NORAD 49489·DEBRIS·🇺🇸 United States

Gestartet Jun 24, 2002 von Vandenberg Space Force Base

Loading…

Nächste Überflüge (nächste 24 Stunden)

TLE

VeraltetSource: Space-Track

Epoche: Jul 14, 2026, 10:26 UTC

1 49489U 02032DT  26195.43530430  .00221844  00000-0  46735-2 0  9994
2 49489  98.7533 269.9060 0018746 226.9238 133.0437 15.44232868261699

Verfolge NOAA 17 DEB in Echtzeit mit AllMySat

Download on the App Store